FLOCK 2K-24 (42857 NORAD) Tracking and Keplerian Element Data

This shows tracking and keplerian element data for the satellite.

Feedback or suggestion? Click here.




ElementValue
Catalog42857
NameFLOCK 2K-24
Epoch Orbit3284
Epoch Day45.79772669
Epoch Year2018
RAAN308.5206
Inclination96.9926
Eccentricity0.0010329
Argument of Perigee182.5123
Mean Anonmoly177.6071
Mean Motion15.35186596
Decay Rate4.935E-05
L11 42857U 17042AJ 18045.79772669 .00004935 00000-0 14647-3 0 9997
L22 42857 96.9926 308.5206 0010329 182.5123 177.6071 15.35186596 32845

Live tracking and technical data element details for FLOCK 2K-24 (NORAD 42857). FLOCK 2K-24 can be tracked NOW for your location showing map with azimuth and elevation plus other details from your city location.

Track the satellite on the map from your city or location and see movement details for azimuth, elevation, latitude, longitude, range, height, and movement on the map or in text.







IsCatalogInMostPopularTable: catalog: 42857, numindb: 96
Update: records affected: 1



GetName: 42857 FLOCK 2K-24

Hit Count: updated at: Sat, 21 Jul 2018 08:04:18 GMT